Weather History for KMWC - December, 2013

Change the Weather History Date:

Wednesday, December 11, 2013

  Actual Average Record
Temperature  
Mean Temperature 7 °F -  
Max Temperature 14 °F 33 °F 59 °F (1949)
Min Temperature 0 °F 19 °F -9 °F (1972)
Degree Days  
Heating Degree Days 58    
Moisture  
Dew Point -2 °F    
Average Humidity 67    
Maximum Humidity 85    
Minimum Humidity 48    
Precipitation  
Precipitation 0.00 in - - ()
Sea Level Pressure  
Sea Level Pressure 30.36 in    
Wind  
Wind Speed 8 mph (West)    
Max Wind Speed 18 mph    
Max Gust Speed 25 mph    
Visibility 8 miles    
Events Snow    
Averages and records for this station are not official NWS values.
T = Trace of Precipitation, MM = Missing Value Source: NWS Daily Summary

Daily Weather History Graph

Daily Weather History Graph

Search for Another Location

Airport or City:

Trip Planner

Search our weather history database for the weather conditions in past years. The results will help you decide how hot, cold, wet, or windy it might be!

Date:

Astronomy

Dec. 11, 2013 Rise Set
Actual Time 7:13 AM CST 4:17 PM CST
Civil Twilight 6:41 AM CST 4:49 PM CST
Nautical Twilight 6:05 AM CST 5:25 PM CST
Astronomical Twilight 5:31 AM CST 5:59 PM CST
Moon 12:57 PM CST (12/11) 1:27 AM CST (12/11)
Length of Visible Light 10h 07m
Length of Day
9h 03m
Waxing Gibbous, 72% of the Moon is Illuminated
Dec 11
Waxing Gibbous
Dec 17
Full
Dec 25
Last Quarter
Jan 1
New
Jan 7
First Quarter

Hourly Weather History & Observations

Time (CST) Temp. Windchill Dew Point Humidity Pressure Visibility Wind Dir Wind Speed Gust Speed Precip Events Conditions
12:15 AM 12.2 °F -0.2 °F 1.4 °F 62% 30.23 in 10.0 mi WSW 9.2 mph - N/A   Clear
12:35 AM 10.4 °F -1.5 °F 1.4 °F 67% 30.24 in 10.0 mi WSW 8.1 mph - N/A   Clear
12:55 AM 10.4 °F -0.4 °F 1.4 °F 67% 30.24 in 10.0 mi West 6.9 mph - N/A   Scattered Clouds
1:15 AM 10.4 °F 0.8 °F 1.4 °F 67% 30.24 in 10.0 mi WSW 5.8 mph - N/A   Mostly Cloudy
1:35 AM 10.4 °F -0.4 °F 3.2 °F 73% 30.24 in 10.0 mi WSW 6.9 mph - N/A   Scattered Clouds
1:55 AM 12.2 °F 0.7 °F 3.2 °F 67% 30.24 in 10.0 mi WSW 8.1 mph - N/A   Overcast
2:15 AM 12.2 °F 2.9 °F 5.0 °F 73% 30.25 in 10.0 mi WSW 5.8 mph - N/A   Overcast
2:35 AM 12.2 °F 1.7 °F 5.0 °F 73% 30.26 in 10.0 mi WSW 6.9 mph - N/A   Overcast
2:55 AM 12.2 °F 2.9 °F 5.0 °F 73% 30.26 in 10.0 mi West 5.8 mph - N/A   Overcast
3:15 AM 12.2 °F 2.9 °F 6.8 °F 79% 30.26 in 5.0 mi WSW 5.8 mph - N/A   Haze
3:35 AM 12.2 °F 2.9 °F 6.8 °F 79% 30.25 in 5.0 mi WSW 5.8 mph - N/A   Haze
3:55 AM 12.2 °F 6.1 °F 8.6 °F 85% 30.24 in 4.0 mi WSW 3.5 mph - N/A   Overcast
4:15 AM 12.2 °F 6.1 °F 8.6 °F 85% 30.24 in 4.0 mi WSW 3.5 mph - N/A   Overcast
4:35 AM 12.2 °F 6.1 °F 8.6 °F 85% 30.24 in 7.0 mi West 3.5 mph - N/A   Overcast
4:55 AM 12.2 °F 6.1 °F 8.6 °F 85% 30.25 in 7.0 mi WSW 3.5 mph - N/A   Overcast
5:15 AM 12.2 °F 6.1 °F 8.6 °F 85% 30.26 in 4.0 mi WSW 3.5 mph - N/A Snow Light Snow
5:35 AM 12.2 °F 2.9 °F 8.6 °F 85% 30.27 in 3.0 mi WSW 5.8 mph - N/A Snow Light Snow
5:55 AM 14.0 °F 5.1 °F 8.6 °F 79% 30.28 in 2.5 mi West 5.8 mph - N/A Snow Light Snow
6:15 AM 14.0 °F 6.5 °F 8.6 °F 79% 30.29 in 5.0 mi West 4.6 mph - N/A Snow Light Snow
6:35 AM 14.0 °F 3.9 °F 8.6 °F 79% 30.29 in 5.0 mi WNW 6.9 mph - N/A Snow Light Snow
6:45 AM 12.2 °F 0.7 °F 8.6 °F 85% 30.30 in 5.0 mi WNW 8.1 mph - N/A Snow Light Snow
7:45 AM 12.2 °F 4.3 °F 6.8 °F 79% 30.32 in 7.0 mi WNW 4.6 mph - N/A Snow Light Snow
8:45 AM 12.2 °F -2.5 °F 5.0 °F 73% 30.35 in 10.0 mi NW 12.7 mph - N/A Snow Light Snow
9:45 AM 8.6 °F -10.0 °F -0.4 °F 67% 30.39 in 10.0 mi WNW 18.4 mph 21.9 mph N/A   Clear
10:45 AM 8.6 °F -7.7 °F -7.6 °F 48% 30.40 in 10.0 mi NW 13.8 mph 23.0 mph N/A   Clear
11:45 AM 8.6 °F -7.7 °F -7.6 °F 48% 30.40 in 10.0 mi NNW 13.8 mph 23.0 mph N/A   Clear
12:45 PM 8.6 °F -7.0 °F -7.6 °F 48% 30.40 in 10.0 mi NW 12.7 mph - N/A   Clear
1:45 PM 6.8 °F -11.8 °F -7.6 °F 52% 30.41 in 10.0 mi WNW 17.3 mph 25.3 mph N/A   Clear
2:45 PM 6.8 °F -10.0 °F -7.6 °F 52% 30.42 in 10.0 mi WNW 13.8 mph - N/A   Clear
3:45 PM 6.8 °F -10.7 °F -9.4 °F 48% 30.43 in 10.0 mi WNW 15.0 mph 20.7 mph N/A   Clear
4:45 PM 3.2 °F -10.3 °F -9.4 °F 56% 30.46 in 10.0 mi WNW 8.1 mph - N/A   Clear
5:45 PM 1.4 °F -13.5 °F -9.4 °F 61% 30.48 in 10.0 mi West 9.2 mph - N/A   Clear
8:15 PM 1.4 °F -8.3 °F -9.4 °F 61% 30.50 in 10.0 mi West 4.6 mph - N/A   Clear
8:30 PM 1.4 °F -12.5 °F -9.4 °F 61% 30.51 in 10.0 mi West 8.1 mph - N/A   Clear
8:55 PM 1.4 °F -12.5 °F -11.2 °F 56% 30.50 in 10.0 mi WNW 8.1 mph - N/A   Clear
9:15 PM -0.4 °F -13.4 °F -13.0 °F 55% 30.49 in 10.0 mi WNW 6.9 mph - N/A   Clear
9:35 PM -0.4 °F -12.0 °F -13.0 °F 55% 30.48 in 10.0 mi West 5.8 mph - N/A   Clear
9:55 PM -0.4 °F -13.4 °F -13.0 °F 55% 30.48 in 10.0 mi West 6.9 mph - N/A   Clear
10:15 PM -0.4 °F -12.0 °F -13.0 °F 55% 30.48 in 10.0 mi West 5.8 mph - N/A   Clear
10:35 PM -0.4 °F -14.7 °F -13.0 °F 55% 30.48 in 10.0 mi West 8.1 mph - N/A   Clear
10:55 PM -0.4 °F -13.4 °F -13.0 °F 55% 30.49 in 10.0 mi SW 6.9 mph - N/A   Clear
11:15 PM -0.4 °F -16.7 °F -11.2 °F 60% 30.50 in 10.0 mi WSW 10.4 mph - N/A   Clear
11:35 PM -0.4 °F -15.7 °F -11.2 °F 60% 30.50 in 10.0 mi WSW 9.2 mph - N/A   Clear
11:55 PM -0.4 °F -13.4 °F -11.2 °F 60% 30.49 in 10.0 mi WSW 6.9 mph - N/A   Clear